Skip Page Navigation
NASA JPL Caltech
NASA Logo - Jet Propulsion Laboratory + View the NASA Portal
+ Near-Earth Object (NEO) Program
Search JPL
JPL Home Earth Solar System Stars & Galaxies Technology
JPL Solar System Dynamics
BODIES ORBITS EPHEMERIDES TOOLS PHYSICAL DATA DISCOVERY FAQ SITE MAP
JPL Small-Body Database Browser
Search: [ help ]  
(1996 AJ1)
Classification: Apollo [NEO, PHA]          SPK-ID: 3013063
Ephemeris | Orbit Diagram | Orbital Elements | Physical Parameters | Close-Approach Data ]

[ hide orbit diagram ]
Orbit Diagram
Note: Make sure you have Java enabled on your browser to see the applet. This applet is provided as a 3D orbit visualization tool. The applet was implemented using 2-body methods, and hence should not be used for determining accurate long-term trajectories (over several years or decades) or planetary encounter circumstances. For accurate long-term ephemerides, please instead use our Horizons system.
Orbit Viewer

Additional Notes: the orbits shown in the applet are color coded. The planets are white lines, and the asteroid/comet is a blue line. The bright white line indicates the portion of the orbit that is above the ecliptic plane, and the darker portion is below the ecliptic plane. Likewise for the asteroid/comet orbit, the light blue indicates the portion above the ecliptic plane, and the dark blue the portion below the ecliptic plane.

Orbit Viewer applet originally written and kindly provided by Osamu Ajiki (AstroArts), and further modified by Ron Baalke (JPL).


Orbital Elements at Epoch 2456400.5 (2013-Apr-18.0) TDB
Reference: JPL 16 (heliocentric ecliptic J2000)
 Element Value Uncertainty (1-sigma)   Units 
e .7813523002237726 8.1799e-07  
a 1.309821288750209 2.4535e-08 AU
q .286389411903167 1.0753e-06 AU
i 2.53792539339362 7.2822e-05 deg
node 91.05759355893809 0.00072247 deg
peri 238.1772577140048 0.00072536 deg
M 240.1940910687553 5.4302e-05 deg
tp 2456582.718401159034
(2013-Oct-17.21840116)
8.5818e-05 JED
period 547.5408099854126
1.50
1.5384e-05
4.212e-08
d
yr
n .6574852384237643 1.8473e-08 deg/d
Q 2.333253165597251 4.3705e-08 AU
  Orbit Determination Parameters
   # obs. used (total)      62  
   data-arc span      5882 days (16.10 yr)  
   first obs. used      1996-01-12  
   last obs. used      2012-02-19  
   planetary ephem.      DE405  
   SB-pert. ephem.      SB405-CPV-2  
   condition code      0  
   fit RMS      .67481  
   data source      ORB  
   producer      Otto Matic  
   solution date      2012-Feb-19 23:50:06  

Additional Information
 Earth MOID = .00475522 AU 
 T_jup = 4.598 
[ show covariance matrix ]

Ephemeris | Orbit Diagram | Orbital Elements | Physical Parameters | Close-Approach Data ]

Physical Parameter Table
Parameter Symbol Value Units Sigma Reference Notes
absolute magnitude H 20.239 mag .56503 16 autocmod 2.5b

[ show close-approach data ]
Ephemeris | Orbit Diagram | Orbital Elements | Physical Parameters | Close-Approach Data ]
ABOUT SSD CREDITS/AWARDS PRIVACY/COPYRIGHT GLOSSARY LINKS
FirstGov 2013-May-19 02:53 UT
(server date/time)  
NASA Home Page
Site Manager:   Donald K. Yeomans
Webmaster  Alan B. Chamberlin